Location: Unspecified
(0.0000°N, 0.0000°E)
Time: 15:19:15
(UTC+00:00)

UNISAT 6 - Visible Passes

Search period start: 19 October 2020 00:00
Search period end: 29 October 2020 00:00
Orbit: 607 x 688 km, 97.7° (Epoch: 18 October)

Date Brightness Start Highest point End Pass type
(mag) Time Alt. Az. Time Alt. Az. Time Alt. Az.
19 Oct ? 18:59:07 26° ESE 18:59:07 26° ESE 19:02:06 10° SSE visible
19 Oct ? 20:36:51 10° WSW 20:36:51 10° WSW 20:37:01 10° WSW visible
20 Oct ? 19:25:13 45° SSE 19:25:13 45° SSE 19:28:32 10° S visible
21 Oct ? 19:51:19 37° SW 19:51:19 37° SW 19:54:15 10° SSW visible
22 Oct ? 18:39:41 15° ESE 18:39:41 15° ESE 18:41:48 10° SE visible
22 Oct ? 20:17:26 19° WSW 20:17:26 19° WSW 20:19:16 10° SW visible
23 Oct ? 19:05:48 31° SE 19:05:48 31° SE 19:09:01 10° SSE visible
24 Oct ? 19:31:54 49° S 19:31:54 49° S 19:35:13 10° S visible
25 Oct ? 19:58:00 32° SW 19:58:00 32° SW 20:00:45 10° SSW visible
26 Oct ? 18:46:21 19° ESE 18:46:21 19° ESE 18:48:59 10° SSE visible
26 Oct ? 20:24:06 16° WSW 20:24:06 16° WSW 20:25:28 10° SW visible
27 Oct ? 19:12:27 38° SE 19:12:27 38° SE 19:15:50 10° S visible
28 Oct ? 19:38:33 49° SSW 19:38:33 49° SSW 19:41:51 10° SSW visible
